Location: Errabaliem
(16.8108°N, 80.4255°E)
Time: 17:14:54
(UTC+00:00)

S3M - Pass Details

Date: 05 August 2024
Orbit: 948 x 1004 km, 83.0° (Epoch: 11 September)

Event Time Altitude Azimuth Distance (km) Brightness Sun altitude
Exits shadow 22:41:58 31° 197° (SSW) 1,662 4.8 -22.6°
Maximum altitude 22:45:10 72° 274° (W) 1,029 3.9 -21.9°
Drops below altitude 10° 22:51:21 10° 358° (N) 2,709 6.6 -20.5°
Sets 22:53:52 0° 1° (N) 3,649 7.4 -20.0°
